Погода в Старой Казинке

Россия / Тамбовская область     52°51′26″N   40°09′35″E
темп.,
°C
ветер,
м/с
пор.,
м/с
влажн.,
%
обл.,
%
осадки,
мм/ч
давл.,
гПа
погр.,
м
22 апреля, чт
чт2200:00+6ююз389227 0.1 1015194
03:00+4юз499653 0.3 1017266
06:00+3юз37945 0.0 1018205
09:00+8юз46735 0.0 1020560
12:00+12юз565685 0.1 10201638
15:00+14юз4650100 0.1 10201827
18:00+13ююз246493 0.0 1020205
21:00+10ю366983 0.0 102181
23 апреля, пт
пт2300:00+10ю3667100 0.0 1020110
03:00+10ю4871100 0.0 1020140
06:00+9ююв377597 0.0 1020142
09:00+13ю596195 0.0 1020529
12:00+16ююз6740100 0.3 10192371
15:00+16ю674597 0.3 10172023
18:00+14ю475840 0.0 1016344
21:00+10юв5117536 0.1 1015224
24 апреля, сб
сб2400:00+10ююв6127924 0.0 1013336
03:00+9ю5117754 0.0 1011376
06:00+9юз3786100 0.0 1010303
09:00+5зсз6692100 1.7 1010519
12:00+5зсз4790100 2.6 1011687
15:00+9з466088 3.2 10101360
18:00+8з6763100 0.9 10111119
21:00+5зюз3877100 1.1 1012178
25 апреля, вс
вс2500:00+4зюз358073 0.3 1012108
03:00+3з388359 0.3 1013156
06:00+3зюз49862 0.0 1014355
09:00+6зюз69605 0.0 10141349
12:00+8зюз81052100 0.8 10152065
15:00+9зюз8114397 0.9 10142556
18:00+7зюз613577 0.6 10152268
21:00+4юз35704 0.6 1016100
26 апреля, пн
пн2600:00+3ююз688797 0.4 1016335
03:00+2ююз379740 0.5 1015236
06:00+2юз369377 0.0 1015280
09:00+6зюз466279 0.0 10151187
12:00+8з6745100 0.1 10142172
15:00+9зюз5838100 0.1 10132541
18:00+7зюз7961100 0.4 10141207
21:00+5юз5973100 1.1 1013485